Location: Berg
(47.2344°N, 9.5296°E)
Time: 22:51:53
(UTC+00:00)

CZ-4B R/B - Pass Details

Date: 24 January 2021
Orbit: 387 x 458 km, 97.6° (Epoch: 04 March)

Event Time Altitude Azimuth Distance (km) Brightness Sun altitude
Exits shadow 16:45:07 - 25° (NNE) 2,442 4.7 -5.9°
Reaches altitude 10° 16:47:25 10° 39° (NE) 1,567 3.6 -6.3°
Maximum altitude 16:50:12 24° 95° (E) 958 2.6 -6.7°
Drops below altitude 10° 16:52:54 10° 151° (SSE) 1,521 4.0 -7.2°
Sets 16:55:07 0° 166° (SSE) 2,365 5.1 -7.5°
